User: anonymous   Login
Location: Unspecified
(0.0000°N, 0.0000°E)
Time: 21:01:51
(UTC+00:00)
Language:

RUBIN 2 - Orbit

View from above orbital plane
View from above orbital plane
View from above satellite
View from above satellite

Ground track
Ground track

The orbit data is extracted from the following two-line orbital elements,

1 27605U 02058A   22222.13216351  .00000180  00000-0  45861-4 0  9994
2 27605  64.5551 124.7937 0081641 284.6216  74.5844 14.75448163 56770
Epoch (UTC): 10 August 2022 03:10:18
Eccentricity: 0.0081641
inclination: 64.5551°
perigee height: 586 km
apogee height: 701 km
right ascension of ascending node: 124.7937°
argument of perigee: 284.6216°
revolutions per day: 14.75448163
mean anomaly at epoch: 74.5844°
orbit number at epoch: 5677

The dashed part of the orbit path shows where the satellite is in the earth's shadow,  

DLR